Weather in La Paz

Bolivia     16˚29′09″S   68˚09′57″W
temp.,
°C
wind,
m/s
gust,
m/s
humid.,
%
clouds,
%
prec.,
mm/h
press.,
hPa
HPBL,
m
15 january, fri
fri1523:00+7˚ne347996 0.0 1015156
02:00+6˚e228588 0.0 101445
05:00+6˚ssw118998 0.1 1014133
08:00+7˚se228698 0.1 1015257
11:00+11˚e4468100 0.8 1014812
14:00+14˚ne325169 1.4 10091435
17:00+13˚ne225772 2.6 1006779
20:00+8˚ne457783 4.3 1010173
16 january, sat
sat1623:00+7˚ne2382100 0.1 1013103
02:00+6˚se1290100 0.1 101256
05:00+7˚e1186100 0.1 101180
08:00+8˚e1177100 0.2 1014421
11:00+9˚wnw5578100 1.8 1013601
14:00+10˚nw6672100 3.5 1009725
17:00+11˚nw3362100 0.3 1006918
20:00+9˚n2271100 0.3 101025
17 january, sun
sun1723:00+8˚ssw467897 0.1 1014451
02:00+7˚e018098 0.1 1012164
05:00+5˚ne1285100 0.0 101133
08:00+8˚nne017285 0.0 1012374
11:00+12˚ese125988 0.5 10121115
14:00+12˚nnw446394 3.1 1007911
17:00+12˚ene556397 1.1 10061009
20:00+8˚ene467999 1.3 1011296
18 january, mon
mon1823:00+8˚nne1282100 0.6 1014207
02:00+6˚ese2388100 4.2 1013242
05:00+4˚ene3393100 8.8 1014235
08:00+5˚wnw1293100 14.8 1017240
11:00+4˚w1193100 6.0 1017213
14:00+10˚ene3370100 6.6 1014834
17:00+9˚ne4577100 0.3 1011489
20:00+6˚ene3586100 0.3 1014239
19 january, tue
tue1923:00+5˚ene2389100 0.0 1017116
02:00+6˚n1184100 0.1 1016215
05:00+5˚sw0192100 1.6 1016161
08:00+6˚e1184100 1.8 1019348
11:00+10˚ssw2172100 0.4 1017713
14:00+11˚ne026995 2.0 1012798
17:00+11˚ne226672 3.0 1010825
20:00+8˚ne358268 3.4 1013134